Starlink 31491

operational
NORAD ID: 59011 Int'l Des: 2024-036 Owner: SPXS Country: US Constellation: starlink
LEOCIRCULAR

关于 Starlink 31491

正在加载描述...

实时位置

正在加载3D地球...

即将过境

高度历史

Altitude vs Time

uPlot chart will show altitude changes over time

两行轨道根数

1 59011U 24036P 26036.26572554 .00003014 00000-0 11382-3 0 9990
2 59011 53.1594 229.1112 0001046 81.7344 278.3776 15.30209278110358
Epoch: Feb 5, 2026 • Age: 5 hours

当前状态

高度 477.6 km
速度 7.63 km/s
星下点 36.68°N, 63.94°E
发射日期 Feb 23, 2024
运行时间 1.9 years
类型 internet

技术详情

分类 Payload
质量 730.00 kg
干质量 700.00 kg
总质量 730.00 kg
长度 0.30 m
直径 4.10 m
跨度 29.00 m
形状 Box + pan
制造商 SPXS
平台类型 Starlink V2M
阶段状态 In Orbit
所有者/国家 SPXS/US

大型星座

Loading constellations...